sat.trackr.live / text

‹ back to catalog

STARLINK-3255

NORAD 50201 · 2021-125AX

PAYLOAD ACTIVE UNKNOWN

§ Identity

Operator
Country
US
Launch date
2021-12-18
Launch site
AFWTR
Launch vehicle
Mass (kg)
RCS (m²)

Purposes: comms

External: N2YO · Heavens-Above · Gunter

§ Orbital elements

Epoch: 2026-05-25T04:48:12.928032Z

Period
89.48 min
Inclination
53.1825°
Eccentricity
0.0004488
Mean motion
16.09341973 rev/d
Perigee alt
245.7 km
Apogee alt
251.6 km
Semi-major
6,626.8 km
B*
6.1495e-4
RAAN
112.3878°
Arg perigee
50.3438°
Mean anomaly
309.7992°
Rev number
25,029

§ Raw data

STARLINK-32551 50201U 21125AX  26145.20014963  .00568231  17633-3  61495-3 0  99982 50201  53.1825 112.3878 0004488  50.3438 309.7992 16.09341973250291

JSON: /api/v1/satellites/50201 · /tle

For live sub-satellite position, see the globe view (requires WebGL).

§ Visibility from observer

Set your observer location to see the next 7 days of passes ≥ 10°. The values pass through the URL so the page stays shareable.

No JS? Fill the form by hand. The geolocation button needs JavaScript.